ISARA (43050 NORAD) Tracking and Keplerian Element Data

This shows tracking and keplerian element data for the satellite.

Feedback or suggestion? Click here.




ElementValue
Catalog43050
NameISARA
Epoch Orbit15078
Epoch Day222.87051685
Epoch Year2020
RAAN150.7004
Inclination51.6353
Eccentricity0.0001474
Argument of Perigee267.3667
Mean Anonmoly92.7152
Mean Motion15.47950671
Decay Rate6.718E-05
L11 43050U 17071P 20222.87051685 .00006718 00000-0 13474-3 0 9990
L22 43050 51.6353 150.7004 0001474 267.3667 92.7152 15.47950671150789

Live tracking and technical data element details for ISARA (NORAD 43050). ISARA can be tracked NOW for your location showing map with azimuth and elevation plus other details from your city location.

Track the satellite on the map from your city or location and see movement details for azimuth, elevation, latitude, longitude, range, height, and movement on the map or in text.







IsCatalogInMostPopularTable: catalog: 43050, numindb: 445
Update: records affected: 1



GetName: 43050 ISARA

Hit Count: updated at: Mon, 10 Aug 2020 21:31:12 GMT